Location: Chisholm
(54.9102°N, 114.1701°W)
Time: 11:16:20
(UTC+00:00)

N. Korean satellite - Pass Details

Date: 30 November 2021
Orbit: 447 x 491 km, 97.3° (Epoch: 25 January)

Event Time Altitude Azimuth Distance (km) Brightness Sun altitude
Rises 14:34:14 0° 0° (N) 2,492 9.9 -8.4°
Reaches altitude 10° 14:37:04 10° 334° (NNW) 1,604 8.7 -8.0°
Maximum altitude 14:38:51 14° 303° (WNW) 1,383 8.2 -7.8°
Drops below altitude 10° 14:40:38 10° 271° (W) 1,589 8.6 -7.5°
Sets 14:43:25 0° 245° (WSW) 2,451 9.8 -7.2°
